STARLINK-3811, 52383

Orbit data source: Space-Track

STARLINK-3811, 52383 is a payload satellite owned by SpaceX/Seattle (US) in LEO that was launched on Fri, 29 Apr 2022 UTC via an FALCON 9 launch vehicle from the Air Force Eastern Test Range (AFETR). Payload-class satellites include a variety of spacecraft equipped with specific instruments for various scientific and technological missions. These include communications satellites like Starlink; space stations such as the ISS; scientific satellites like the Hubble; Earth observation satellites from companies like Planet Labs, Umbra, and HawkEye 360; GPS; miniature CubeSats for education and research; and military/defense satellites.

Loading next visibility...
Identifier
52383, 2022-045BE
Orbit
LEO
Country
Flag of USUS
Related business
Manufacturer
SpaceX/Seattle
Mission
Operational Commercial Communications
Bus & Motor
STARLINK, Unknown motor
Mass
297 kg wet, ~275 kg dry
Launch date (UTC)
2022-04-29 (4 years ago)
Launch vehicle
FALCON 9
Launch site
Air Force Eastern Test Range (AFETR)
Object type
Payload
Rocket body
Debris
Shape & HBR
Box + 1 Pan, 10.1 m
Radar Cross Section
11.087 m², Large (>1 m²)

Expand to show TLE details & history
Last TLE update: 17 hours ago

TLE from 17 hours ago
0 STARLINK-3811
1 52383U 22045BE  25348.89982399 -.00000438  00000-0 -94166-5 0  9991
2 52383  53.2174 199.7843 0001676  94.8536 265.2648 15.08821501203268
Epoch: 2025-12-14T21:35Z
TLE epoch observation values (Epoch: 2025-12-14T21:35:44.792Z)
Latitude
Longitude
152.04155°
Altitude
540.793 km
Speed
7.593 km/s
True Right ascension
13h 19m 08s
True Declination
0° 00' 00"
Sunlit
Object was in daylight at epoch
Visualization orbit readout
Latitude
Unknown
Longitude
Unknown
Altitude
Unknown
Speed
Unknown
Apparent Right ascension
Unknown
Apparent Declination
Unknown
Sunlit
N/A
Visualization observer readout
Local Sidereal Time
13:20:31
Azimuth
Unknown
Elevation
Unknown
Doppler factor
Unknown
Orbital elements
Apogee altitude
541.204 km
Perigee altitude
538.885 km
Semi-major axis
6,918.182 km
Eccentricity
0.00017
Inclination
53.2174°
RAAN
199.7843°
Arg. of periapsis
94.8536°
True anomaly
265.24566°
Mean anomaly
265.2648°
Eccentric anomaly
265.25523°
Mean motion
3.77186 °/min
Orbital period
95.44 mins
BSTAR
-0.0000094166
Loading maneuver chart data...
Computing Atmospheric mass density...
Loading historical data...
Loading historical data...
Loading historical data...
Loading historical data...
Loading historical data...
Loading historical data...
Loading historical data...

Documentation

Showing up to 5 results
|